Wind_Speed
6 9 16 19 25 30 23 24 22 21 24 27 28 30 31 30 29 30 29 33 37 35 32 32 33 31 30 30 32 34 38 38 41 44 45 44 40 35 40 42 42 39 35
8 13 20 22 18 17 16 16 17 20 23 24 28 30 29 30 30 31 33 33 34 37 40 37 36 32 34 35 36 36 37 37 37 41 44 43 40 38 40 44 41 37 35
14 15 13 16 19 20 21 24 26 29 32 35 37 39 39 40 40 40 38 34 35 37 38 40 42 36 35 33 33 37 39 38 37 38 37 36 40 38 40 39 38 35 35
13 15 16 19 21 21 22 24 25 26 27 27 27 29 32 35 37 37 33 37 41 39 35 35 40 38 37 38 35 36 37 38 38 38 38 36 38 39 37 37 38 33 36
15 16 17 19 21 21 23 24 25 25 26 27 29 30 31 30 29 30 35 42 44 46 41 38 37 35 41 40 37 37 42 41 40 37 39 34 35 34 33 28 31 35 39
15 15 17 20 22 23 26 28 28 29 30 32 31 32 32 33 33 31 31 35 41 43 46 47 42 41 37 33 37 37 36 36 39 36 36 34 33 31 28 28 31 33 36
15 17 19 21 23 25 27 28 30 31 32 31 33 34 35 34 33 34 36 37 41 44 43 40 42 43 42 40 38 37 39 37 38 38 42 42 36 31 30 29 29 34 40
16 18 20 23 25 27 28 29 31 33 31 35 34 34 35 36 37 40 39 39 40 41 39 41 42 43 42 41 40 38 41 39 36 36 39 40 39 37 34 32 30 35 41
17 20 22 24 26 28 30 30 32 32 37 35 34 38 39 44 41 41 38 39 40 43 46 46 43 40 43 41 41 38 40 37 37 35 35 35 36 35 33 32 34 33 40
19 21 22 24 27 29 29 31 33 34 33 36 39 36 39 44 42 41 41 44 44 45 47 50 47 44 42 39 43 47 39 34 33 34 35 35 30 28 27 29 29 31 32
19 21 22 24 26 26 29 33 33 35 36 37 39 42 41 37 44 42 42 40 40 41 50 55 53 47 38 37 41 40 34 30 31 35 33 32 31 28 24 22 23 27 31
20 21 23 24 26 26 31 31 33 33 39 41 42 42 46 46 40 41 40 40 42 45 49 53 52 43 34 34 42 32 27 26 29 31 28 27 24 21 20 20 23 25 27
20 22 23 24 26 31 29 32 33 39 41 40 39 44 45 48 47 42 42 44 46 45 49 53 50 35 27 38 28 21 22 20 24 24 22 21 19 18 19 19 18 19 22
20 22 22 24 28 31 30 32 38 38 38 41 42 42 45 48 43 44 47 49 52 53 51 52 36 23 22 17 15 16 16 16 18 16 16 17 16 15 14 12 15 17 20
20 22 24 29 32 33 35 34 36 34 33 35 39 40 42 45 44 41 41 46 52 50 53 32 16 13 12 12 13 13 12 11 12 11 10 11 11 10 10 10 12 15 17
22 26 27 30 30 35 37 43 35 31 34 34 33 34 37 36 37 38 40 44 47 50 33 16 15 12 11 11 13 12 6 5 5 4 5 5 7 8 9 10 12 14 16
24 25 27 27 32 34 37 39 45 50 38 34 36 33 34 34 35 36 36 42 39 47 33 28 13 9 6 9 9 8 5 4 2 2 2 4 7 8 9 11 12 16 18
22 23 23 29 29 34 37 37 39 39 44 49 43 37 36 34 34 33 33 35 39 42 42 33 27 19 4 15 13 13 13 8 5 4 5 7 10 12 12 15 14 17 19
22 24 27 26 29 33 35 37 39 39 41 40 45 44 42 38 31 27 30 32 35 36 36 34 32 22 20 16 12 11 9 9 9 6 8 10 12 14 16 17 16 16 19
22 24 24 25 29 34 35 37 39 39 38 39 40 40 42 43 33 32 31 30 30 30 30 31 29 26 22 13 10 9 10 7 10 11 9 8 10 13 16 18 19 17 18
23 25 21 24 29 32 34 35 36 38 39 38 38 39 37 35 30 28 30 27 27 26 26 28 24 24 20 20 18 14 10 10 11 12 13 16 16 16 16 17 20 18 16
24 21 22 26 28 31 32 33 35 36 38 40 40 39 36 33 29 28 25 24 23 23 21 22 22 20 20 15 13 15 13 12 13 15 18 18 17 16 17 18 20 21 20
21 19 23 25 26 28 32 31 33 35 37 37 39 40 37 34 31 28 26 23 21 22 20 18 18 17 17 17 15 13 14 15 17 19 21 19 18 19 19 19 20 21 22
17 19 22 25 24 27 30 32 31 33 35 37 38 39 36 32 31 29 26 24 20 21 20 18 16 14 13 14 15 13 12 15 16 19 21 19 18 18 18 18 19 16 19
16 19 22 23 24 27 29 29 30 32 35 36 38 36 33 31 28 27 27 25 23 24 21 20 18 15 16 14 13 15 16 18 19 19 18 17 18 17 18 18 18 17 18
15 19 21 22 23 27 28 29 30 31 35 36 37 37 36 36 34 30 27 27 26 25 24 23 22 20 21 18 10 8 11 14 17 17 17 18 18 17 17 18 18 17 15
Wind_Direction
310 290 303 301 301 310 322 319 308 304 304 309 310 307 304 302 299 295 289 288 290 292 293 290 286 284 281 276 274 271 266 264 268 267 266 270 275 267 263 261 266 271 276
281 294 300 313 316 324 317 304 296 287 286 289 290 291 292 294 295 294 293 288 283 281 284 282 281 283 272 271 274 275 274 275 272 274 273 273 271 266 268 270 274 276 275
303 310 323 306 307 309 306 303 301 298 296 294 294 293 293 292 290 288 283 288 289 285 282 280 280 279 276 272 265 269 273 273 273 276 272 271 274 275 277 276 277 279 277
337 331 330 331 326 323 317 313 311 313 314 316 316 316 312 307 302 301 309 301 295 291 279 276 274 270 269 272 275 262 262 268 269 271 270 272 274 275 277 279 284 280 278
332 329 329 324 326 329 325 325 325 323 321 314 308 307 304 309 311 308 303 301 302 305 298 303 282 270 261 267 272 270 259 261 265 266 267 268 268 270 272 277 271 279 279
343 342 338 332 330 331 330 329 327 324 318 319 319 316 315 311 313 316 313 304 302 304 305 297 291 289 273 267 263 263 263 258 257 258 262 262 264 266 270 271 275 283 290
343 336 337 334 334 331 327 327 324 322 322 320 316 314 313 312 312 307 307 308 304 304 307 309 300 285 285 276 258 256 257 258 259 259 259 261 266 266 274 272 270 274 278
335 334 334 332 331 327 326 325 324 323 321 319 320 318 316 314 312 310 310 311 306 305 304 304 307 297 282 278 262 253 254 266 261 257 259 265 267 270 266 268 273 276 279
332 333 330 330 326 326 326 326 325 322 318 319 317 314 315 311 316 313 316 314 309 308 306 298 301 296 287 278 265 251 249 263 265 264 265 268 270 272 269 272 273 279 283
331 327 328 327 325 325 326 325 316 324 322 318 317 317 316 315 315 315 311 313 309 311 308 305 304 299 285 278 267 257 250 256 258 259 263 266 263 263 266 268 271 271 276
326 325 327 324 324 327 323 315 325 322 323 320 319 319 320 317 316 318 317 318 315 309 307 306 306 303 287 277 265 239 244 255 253 263 264 264 265 270 267 270 266 267 271
325 327 325 326 326 323 321 326 326 326 323 322 323 321 319 321 320 321 320 319 314 313 308 305 308 302 287 272 253 237 249 252 257 259 260 263 266 272 275 276 275 274 275
328 327 326 327 326 321 329 330 326 325 326 326 325 324 322 322 323 323 322 319 320 316 308 313 309 287 275 259 233 239 244 248 255 253 255 262 270 276 284 287 286 287 291
329 327 330 326 324 329 333 327 326 328 328 326 326 324 322 322 325 325 324 323 321 317 318 316 311 293 244 217 231 235 235 244 252 248 254 267 276 284 294 303 307 315 309
329 330 328 329 337 334 327 328 329 327 327 325 324 323 324 323 323 323 325 323 322 318 324 312 292 271 249 239 234 232 238 235 238 247 258 272 283 296 308 318 320 327 320
329 333 333 338 334 328 332 330 331 329 328 326 327 325 324 321 324 323 323 326 332 331 333 323 311 273 248 230 227 218 205 211 214 246 264 281 302 318 328 338 339 337 331
332 334 337 333 327 333 335 334 332 332 332 332 333 333 331 329 329 328 329 333 340 353 356 7 293 298 272 240 217 184 164 132 98 78 360 359 7 358 3 353 352 351 349
333 336 333 328 337 336 334 332 332 330 330 333 338 336 335 333 330 333 337 340 350 358 7 12 23 48 62 82 102 99 102 96 70 46 27 26 11 17 13 8 5 357 356
334 336 332 341 339 333 333 333 333 332 334 332 333 335 337 336 338 347 347 351 351 353 1 10 24 29 49 44 55 64 69 55 31 24 31 28 17 17 16 14 8 6 1
336 338 338 345 331 332 336 334 334 336 332 332 333 333 334 336 342 348 348 345 347 350 358 360 7 18 29 22 67 51 38 36 27 7 16 24 27 21 12 14 12 7 6
339 337 347 332 330 333 335 335 338 335 334 332 331 333 333 335 335 335 338 336 340 345 348 354 353 358 13 23 30 32 25 25 7 358 9 11 20 16 12 11 9 12 3
337 341 340 327 329 330 336 340 337 337 335 335 334 334 335 335 331 326 322 325 330 332 341 350 344 344 349 350 8 15 353 356 341 342 354 1 5 6 7 9 11 11 11
335 344 327 329 330 333 338 338 341 339 338 337 337 336 334 331 328 325 322 319 318 321 321 338 336 336 338 334 326 326 349 325 322 325 335 346 354 358 0 5 4 4 5
338 331 330 329 335 337 334 338 340 341 340 341 338 335 333 331 327 327 323 317 310 310 304 307 315 314 319 334 322 315 295 303 308 311 320 331 344 350 353 356 357 3 3
335 331 327 336 338 336 336 337 341 343 343 342 340 339 337 334 326 321 318 315 305 302 297 288 289 287 290 306 311 310 302 297 301 304 310 319 329 340 346 347 351 357 2
331 327 334 337 337 335 339 339 342 343 346 347 345 350 350 346 342 332 320 315 309 302 293 285 282 280 273 272 272 293 313 293 291 296 305 308 314 326 336 340 344 351 358
Height
1528 1528 1527 1526 1524 1520 1516 1513 1510 1508 1505 1501 1498 1496 1494 1492 1490 1487 1484 1480 1476 1473 1471 1468 1466 1466 1465 1464 1463 1463 1462 1462 1457 1455 1456 1457 1457 1458 1456 1455 1455 1454 1454
1526 1525 1524 1522 1519 1517 1513 1509 1505 1501 1499 1496 1493 1490 1488 1486 1484 1481 1478 1476 1472 1467 1463 1461 1457 1457 1455 1456 1454 1452 1452 1453 1451 1447 1447 1446 1445 1447 1446 1443 1445 1444 1442
1525 1523 1521 1518 1515 1512 1508 1504 1501 1497 1493 1490 1487 1484 1480 1477 1475 1472 1469 1466 1464 1461 1457 1453 1449 1448 1445 1444 1444 1444 1443 1443 1442 1440 1438 1439 1437 1437 1434 1434 1433 1433 1432
1523 1521 1518 1515 1512 1508 1504 1500 1496 1492 1488 1484 1481 1477 1474 1470 1467 1464 1460 1455 1450 1446 1443 1442 1441 1438 1435 1435 1435 1435 1434 1434 1433 1432 1430 1431 1430 1429 1428 1425 1422 1423 1420
1520 1518 1515 1512 1508 1504 1500 1496 1492 1488 1484 1480 1475 1472 1468 1464 1461 1458 1453 1448 1442 1437 1434 1431 1427 1426 1425 1425 1425 1424 1425 1425 1424 1423 1422 1423 1422 1421 1420 1421 1417 1414 1409
1518 1516 1513 1509 1505 1501 1497 1492 1488 1484 1480 1475 1471 1467 1462 1458 1455 1451 1447 1441 1435 1430 1424 1420 1418 1416 1415 1413 1414 1414 1416 1415 1414 1416 1414 1413 1412 1414 1415 1413 1409 1406 1399
1517 1514 1511 1507 1503 1499 1494 1490 1485 1480 1475 1470 1465 1461 1456 1452 1448 1444 1438 1433 1427 1422 1416 1411 1407 1406 1405 1402 1399 1401 1404 1405 1404 1405 1404 1403 1404 1405 1405 1403 1401 1398 1392
1516 1512 1509 1505 1500 1496 1491 1486 1481 1476 1471 1465 1460 1456 1450 1445 1440 1435 1430 1424 1418 1413 1409 1404 1399 1394 1394 1393 1390 1387 1390 1392 1394 1395 1393 1393 1394 1396 1395 1394 1392 1388 1383
1514 1510 1506 1502 1497 1492 1487 1482 1477 1471 1465 1460 1456 1449 1444 1437 1432 1427 1423 1416 1408 1402 1397 1392 1389 1385 1381 1381 1379 1375 1377 1379 1382 1384 1384 1384 1385 1385 1386 1384 1380 1380 1370
1512 1508 1504 1499 1494 1489 1484 1479 1472 1467 1461 1456 1449 1444 1438 1431 1425 1420 1414 1408 1400 1394 1385 1379 1375 1372 1369 1368 1368 1366 1366 1369 1373 1376 1375 1374 1375 1375 1375 1374 1373 1370 1366
1509 1504 1500 1496 1491 1486 1481 1474 1468 1462 1455 1449 1443 1437 1430 1425 1417 1412 1407 1401 1394 1386 1376 1367 1361 1357 1355 1354 1354 1353 1356 1360 1362 1365 1364 1365 1365 1365 1365 1364 1363 1361 1357
1505 1501 1497 1492 1487 1482 1475 1469 1463 1457 1450 1443 1436 1428 1422 1416 1411 1404 1399 1393 1387 1379 1368 1359 1350 1344 1342 1342 1343 1343 1347 1351 1353 1355 1355 1356 1356 1356 1356 1354 1353 1350 1347
1501 1497 1492 1488 1483 1477 1471 1465 1458 1453 1446 1438 1432 1424 1415 1409 1403 1397 1390 1383 1375 1368 1359 1348 1338 1330 1328 1331 1334 1337 1341 1343 1346 1347 1348 1349 1349 1349 1348 1345 1344 1341 1337
1497 1493 1488 1483 1477 1472 1468 1463 1456 1450 1443 1435 1428 1420 1410 1403 1397 1390 1382 1373 1364 1354 1345 1334 1325 1319 1321 1326 1330 1333 1335 1338 1340 1341 1343 1344 1343 1342 1340 1339 1336 1333 1329
1493 1489 1484 1479 1473 1468 1463 1459 1452 1447 1443 1434 1426 1418 1408 1399 1393 1388 1380 1370 1359 1348 1336 1326 1323 1323 1323 1325 1328 1330 1332 1333 1335 1338 1338 1338 1338 1337 1335 1333 1331 1328 1324
1489 1484 1480 1474 1470 1465 1458 1448 1448 1444 1437 1431 1424 1416 1407 1400 1391 1383 1375 1365 1354 1341 1327 1323 1322 1320 1322 1324 1326 1328 1329 1331 1333 1334 1335 1335 1335 1333 1331 1329 1326 1323 1320
1485 1481 1476 1473 1468 1462 1456 1449 1438 1426 1429 1424 1417 1410 1404 1396 1387 1380 1371 1362 1351 1338 1328 1325 1320 1321 1322 1323 1325 1327 1328 1330 1332 1333 1334 1333 1332 1330 1328 1325 1322 1320 1316
1482 1478 1474 1469 1465 1459 1454 1448 1441 1433 1421 1411 1409 1405 1398 1392 1384 1377 1370 1361 1350 1340 1335 1331 1326 1322 1323 1322 1324 1325 1327 1329 1331 1333 1333 1332 1331 1328 1326 1323 1320 1317 1313
1478 1474 1470 1466 1462 1458 1452 1445 1438 1431 1423 1414 1405 1398 1394 1387 1381 1375 1370 1364 1358 1351 1344 1339 1334 1332 1330 1329 1328 1329 1330 1332 1333 1332 1331 1330 1329 1327 1324 1322 1319 1315 1312
1475 1471 1467 1463 1460 1454 1448 1441 1434 1427 1421 1413 1406 1399 1391 1383 1377 1372 1369 1365 1360 1355 1350 1346 1341 1338 1336 1335 1333 1333 1334 1334 1334 1333 1331 1330 1329 1327 1325 1322 1318 1315 1312
1471 1467 1464 1462 1457 1452 1445 1439 1432 1426 1419 1412 1405 1398 1392 1386 1379 1375 1370 1366 1362 1358 1354 1350 1346 1343 1341 1339 1338 1338 1336 1336 1335 1334 1333 1331 1329 1327 1324 1322 1319 1315 1312
1469 1465 1462 1459 1454 1448 1443 1437 1431 1424 1417 1409 1401 1395 1389 1384 1379 1374 1370 1366 1362 1359 1356 1353 1350 1347 1345 1342 1340 1340 1339 1338 1336 1335 1334 1332 1329 1326 1324 1321 1319 1315 1312
1465 1463 1460 1456 1451 1445 1440 1434 1428 1421 1414 1407 1400 1392 1386 1381 1376 1372 1368 1364 1361 1358 1355 1352 1350 1348 1346 1344 1343 1341 1340 1338 1336 1335 1333 1332 1330 1327 1324 1321 1319 1316 1313
1462 1460 1456 1452 1447 1442 1437 1431 1425 1419 1412 1405 1398 1391 1384 1378 1373 1368 1365 1361 1358 1355 1353 1350 1348 1347 1345 1344 1342 1341 1339 1337 1335 1334 1333 1331 1329 1327 1324 1322 1319 1317 1314
1460 1457 1453 1448 1444 1439 1434 1428 1422 1416 1410 1403 1395 1388 1381 1375 1369 1365 1361 1357 1354 1351 1348 1346 1345 1344 1342 1340 1340 1338 1337 1335 1333 1332 1330 1329 1327 1327 1324 1323 1320 1316 1315
1456 1453 1449 1445 1442 1437 1431 1425 1419 1413 1407 1400 1393 1386 1378 1372 1366 1360 1356 1352 1348 1345 1342 1341 1340 1338 1336 1336 1336 1336 1334 1332 1330 1329 1328 1326 1326 1325 1324 1322 1320 1318 1315